Time,TemperatureF,DewpointF,PressureIn,WindDirection,WindDirectionDegrees,WindSpeedMPH,WindSpeedGustMPH,Humidity,HourlyPrecipIn,Conditions,Clouds,dailyrainin,SoftwareType,DateUTC
2013-05-22 00:30:00,69.1,63.4,29.68,SW,225,0.2,0.2,82,0.00,,,0.00,WUHU21623XXSP,2013-05-22 05:30:00,
2013-05-22 01:30:00,68.2,62.9,29.66,SSW,203,3.1,3.1,83,0.00,,,0.00,WUHU21623XXSP,2013-05-22 06:30:00,
2013-05-22 02:30:00,67.6,62.3,29.67,South,180,0.0,0.0,83,0.00,,,0.00,WUHU21623XXSP,2013-05-22 07:30:00,
2013-05-22 03:30:00,66.7,61.7,29.66,SW,225,0.0,0.0,84,0.00,,,0.00,WUHU21623XXSP,2013-05-22 08:30:00,
2013-05-22 04:30:00,65.1,60.5,29.67,WSW,248,0.0,0.0,85,0.00,,,0.00,WUHU21623XXSP,2013-05-22 09:30:00,
2013-05-22 05:30:00,62.2,58.0,29.67,WSW,248,0.0,0.0,86,0.00,,,0.04,WUHU21623XXSP,2013-05-22 10:30:00,
2013-05-22 06:30:00,61.9,58.0,29.66,South,180,0.0,0.0,87,0.00,,,0.10,WUHU21623XXSP,2013-05-22 11:30:00,
2013-05-22 07:30:00,63.7,59.4,29.62,SSE,158,0.0,0.0,86,0.00,,,0.16,WUHU21623XXSP,2013-05-22 12:30:00,
2013-05-22 08:30:00,66.0,61.7,29.65,SW,225,0.0,0.0,86,0.00,,,0.20,WUHU21623XXSP,2013-05-22 13:30:00,
2013-05-22 09:30:00,65.1,60.8,29.65,WSW,248,0.0,0.0,86,0.00,,,0.22,WUHU21623XXSP,2013-05-22 14:30:00,
2013-05-22 10:30:00,62.4,58.5,29.67,WSW,248,0.0,0.0,87,0.00,,,0.24,WUHU21623XXSP,2013-05-22 15:30:00,
2013-05-22 11:30:00,62.6,58.7,29.68,NW,315,0.0,0.0,87,0.00,,,0.26,WUHU21623XXSP,2013-05-22 16:30:00,
2013-05-22 12:30:00,66.4,61.4,29.70,SW,225,0.0,0.0,84,0.00,,,0.28,WUHU21623XXSP,2013-05-22 17:30:00,
2013-05-22 13:30:00,69.1,61.3,29.69,WSW,248,7.4,7.4,76,0.00,,,0.30,WUHU21623XXSP,2013-05-22 18:30:00,
2013-05-22 14:30:00,70.2,60.9,29.69,WSW,248,5.6,5.6,72,0.00,,,0.32,WUHU21623XXSP,2013-05-22 19:30:00,
2013-05-22 15:30:00,70.9,61.2,29.68,WSW,248,4.3,4.3,71,0.00,,,0.34,WUHU21623XXSP,2013-05-22 20:30:00,
2013-05-22 16:30:00,70.9,60.4,29.68,WSW,248,3.6,3.6,69,0.00,,,0.36,WUHU21623XXSP,2013-05-22 21:30:00,
2013-05-22 17:30:00,67.5,59.4,29.69,SSW,203,0.0,0.0,75,0.00,,,0.36,WUHU21623XXSP,2013-05-22 22:30:00,
2013-05-22 18:07:00,66.0,58.6,29.70,WSW,247,0.0,0.0,77,0.00,,,0.38,WUHU21623XXSP,2013-05-22 23:07:00,
2013-05-22 18:13:00,66.2,58.8,29.70,WSW,247,0.0,0.0,77,1.33,,,1.71,WUHU21623XXSP,2013-05-22 23:13:00,
2013-05-22 18:18:00,66.0,58.6,29.70,NNW,337,0.0,0.0,77,1.33,,,1.71,WUHU21623XXSP,2013-05-22 23:18:00,
2013-05-22 18:23:00,66.7,59.7,29.70,NNW,337,0.0,1.1,78,1.33,,,1.71,WUHU21623XXSP,2013-05-22 23:23:00,
2013-05-22 18:28:00,66.7,59.3,29.70,WNW,292,0.0,4.3,77,1.33,,,1.71,WUHU21623XXSP,2013-05-22 23:28:00,
2013-05-22 18:33:00,66.6,58.7,29.70,WNW,292,0.0,4.3,76,0.00,,,1.71,WUHU21623XXSP,2013-05-22 23:33:00,
2013-05-22 18:38:00,66.4,58.6,29.71,WNW,292,0.0,2.9,76,0.00,,,1.71,WUHU21623XXSP,2013-05-22 23:38:00,
2013-05-22 18:43:00,66.0,58.2,29.70,WNW,292,0.0,2.9,76,0.00,,,1.71,WUHU21623XXSP,2013-05-22 23:43:00,
2013-05-22 18:48:00,65.8,58.0,29.70,WNW,292,0.0,0.0,76,0.02,,,1.73,WUHU21623XXSP,2013-05-22 23:48:00,
2013-05-22 18:53:00,65.7,58.2,29.71,West,270,2.9,6.9,77,0.02,,,1.73,WUHU21623XXSP,2013-05-22 23:53:00,
2013-05-22 18:58:00,65.5,57.7,29.71,West,270,4.9,8.7,76,0.02,,,1.73,WUHU21623XXSP,2013-05-22 23:58:00,
2013-05-22 19:03:00,65.5,57.7,29.71,WSW,247,2.0,8.7,76,0.02,,,1.73,WUHU21623XXSP,2013-05-23 00:03:00,
2013-05-22 19:08:00,65.5,57.7,29.71,SW,225,2.7,7.2,76,0.02,,,1.73,WUHU21623XXSP,2013-05-23 00:08:00,
2013-05-22 19:13:00,65.5,57.7,29.71,West,270,0.0,7.2,76,0.02,,,1.73,WUHU21623XXSP,2013-05-23 00:13:00,
2013-05-22 19:18:00,65.3,57.5,29.72,WSW,247,2.2,6.3,76,0.02,,,1.73,WUHU21623XXSP,2013-05-23 00:18:00,
2013-05-22 19:23:00,65.5,57.7,29.72,WSW,247,7.2,7.2,76,0.02,,,1.73,WUHU21623XXSP,2013-05-23 00:23:00,
2013-05-22 19:28:00,65.5,57.7,29.72,WSW,247,4.0,7.4,76,0.02,,,1.73,WUHU21623XXSP,2013-05-23 00:28:00,
2013-05-22 19:33:00,65.1,57.3,29.72,WSW,247,1.6,7.4,76,0.02,,,1.73,WUHU21623XXSP,2013-05-23 00:33:00,
2013-05-22 19:38:00,65.1,57.3,29.72,WSW,247,3.4,5.6,76,0.02,,,1.73,WUHU21623XXSP,2013-05-23 00:38:00,
2013-05-22 19:43:00,64.9,57.2,29.72,WSW,247,3.4,5.6,76,0.02,,,1.73,WUHU21623XXSP,2013-05-23 00:43:00,
2013-05-22 19:48:00,64.8,57.0,29.73,WSW,247,4.0,6.0,76,0.00,,,1.73,WUHU21623XXSP,2013-05-23 00:48:00,
2013-05-22 19:53:00,64.6,56.8,29.73,WSW,247,2.9,6.3,76,0.00,,,1.73,WUHU21623XXSP,2013-05-23 00:53:00,
2013-05-22 19:58:00,64.2,56.5,29.73,WSW,247,0.0,6.3,76,0.00,,,1.73,WUHU21623XXSP,2013-05-23 00:58:00,
2013-05-22 20:04:00,64.2,56.8,29.73,WSW,247,0.0,5.6,77,0.00,,,1.73,WUHU21623XXSP,2013-05-23 01:04:00,
2013-05-22 20:09:00,63.9,56.5,29.73,WSW,247,0.0,3.1,77,0.00,,,1.73,WUHU21623XXSP,2013-05-23 01:09:00,
2013-05-22 20:14:00,63.7,56.3,29.73,SW,225,0.0,3.1,77,0.00,,,1.73,WUHU21623XXSP,2013-05-23 01:14:00,
2013-05-22 20:19:00,63.3,56.3,29.74,WSW,247,0.0,3.1,78,0.00,,,1.73,WUHU21623XXSP,2013-05-23 01:19:00,
2013-05-22 20:24:00,63.1,56.1,29.73,WSW,247,0.0,1.1,78,0.00,,,1.73,WUHU21623XXSP,2013-05-23 01:24:00,
2013-05-22 20:29:00,63.0,56.3,29.74,WSW,247,0.0,0.0,79,0.00,,,1.73,WUHU21623XXSP,2013-05-23 01:29:00,
2013-05-22 20:34:00,62.6,55.9,29.74,WSW,247,0.0,0.0,79,0.00,,,1.73,WUHU21623XXSP,2013-05-23 01:34:00,
2013-05-22 20:39:00,62.4,56.1,29.74,WSW,247,0.0,0.0,80,0.00,,,1.73,WUHU21623XXSP,2013-05-23 01:39:00,
2013-05-22 20:44:00,62.4,56.1,29.74,WSW,247,0.0,0.0,80,0.00,,,1.73,WUHU21623XXSP,2013-05-23 01:44:00,
2013-05-22 20:49:00,62.2,56.0,29.75,WSW,247,0.0,0.0,80,0.00,,,1.73,WUHU21623XXSP,2013-05-23 01:49:00,
2013-05-22 20:54:00,62.1,55.8,29.75,WSW,247,0.0,2.0,80,0.00,,,1.73,WUHU21623XXSP,2013-05-23 01:54:00,
2013-05-22 20:59:00,61.9,55.7,29.75,WSW,247,0.0,3.1,80,0.00,,,1.73,WUHU21623XXSP,2013-05-23 01:59:00,
2013-05-22 21:04:00,61.9,55.7,29.75,WSW,247,0.0,3.1,80,0.00,,,1.73,WUHU21623XXSP,2013-05-23 02:04:00,
2013-05-22 21:09:00,61.7,55.8,29.75,WSW,247,1.3,2.7,81,0.00,,,1.73,WUHU21623XXSP,2013-05-23 02:09:00,
2013-05-22 21:14:00,61.5,55.7,29.76,WSW,247,0.0,2.7,81,0.00,,,1.73,WUHU21623XXSP,2013-05-23 02:14:00,
2013-05-22 21:19:00,61.5,55.7,29.76,WSW,247,0.0,2.5,81,0.00,,,1.73,WUHU21623XXSP,2013-05-23 02:19:00,
2013-05-22 21:24:00,61.5,55.7,29.76,WSW,247,0.0,2.5,81,0.00,,,1.73,WUHU21623XXSP,2013-05-23 02:24:00,
2013-05-22 21:29:00,61.5,55.7,29.76,WSW,247,0.0,2.5,81,0.00,,,1.73,WUHU21623XXSP,2013-05-23 02:29:00,
2013-05-22 21:34:00,61.5,55.7,29.76,WSW,247,0.0,2.5,81,0.00,,,1.73,WUHU21623XXSP,2013-05-23 02:34:00,
2013-05-22 21:39:00,61.5,55.7,29.76,WSW,247,0.0,2.2,81,0.00,,,1.73,WUHU21623XXSP,2013-05-23 02:39:00,
2013-05-22 21:44:00,61.3,55.5,29.76,WSW,247,0.0,1.8,81,0.00,,,1.73,WUHU21623XXSP,2013-05-23 02:44:00,
2013-05-22 21:49:00,61.3,55.5,29.77,WSW,247,0.0,1.1,81,0.00,,,1.73,WUHU21623XXSP,2013-05-23 02:49:00,
2013-05-22 21:54:00,61.3,55.5,29.77,WSW,247,0.0,1.6,81,0.00,,,1.73,WUHU21623XXSP,2013-05-23 02:54:00,
2013-05-22 21:59:00,61.3,55.5,29.77,WSW,247,0.0,1.6,81,0.02,,,1.75,WUHU21623XXSP,2013-05-23 02:59:00,
2013-05-22 22:04:00,61.3,55.5,29.77,WSW,247,0.0,0.0,81,0.02,,,1.75,WUHU21623XXSP,2013-05-23 03:04:00,
2013-05-22 22:09:00,61.3,55.5,29.78,WSW,247,0.0,0.0,81,0.02,,,1.75,WUHU21623XXSP,2013-05-23 03:09:00,
2013-05-22 22:14:00,61.3,55.5,29.77,WSW,247,2.7,5.1,81,0.02,,,1.75,WUHU21623XXSP,2013-05-23 03:14:00,
2013-05-22 22:19:00,61.3,55.5,29.77,WSW,247,1.6,5.1,81,0.02,,,1.75,WUHU21623XXSP,2013-05-23 03:19:00,
2013-05-22 22:24:00,61.3,55.5,29.78,WSW,247,2.0,4.3,81,0.02,,,1.75,WUHU21623XXSP,2013-05-23 03:24:00,
2013-05-22 22:29:00,61.2,55.3,29.78,WSW,247,0.0,3.6,81,0.02,,,1.75,WUHU21623XXSP,2013-05-23 03:29:00,
2013-05-22 22:34:00,61.2,55.3,29.78,WSW,247,3.8,4.5,81,0.02,,,1.75,WUHU21623XXSP,2013-05-23 03:34:00,
2013-05-22 22:39:00,61.0,55.2,29.78,WSW,247,2.0,17.7,81,0.02,,,1.75,WUHU21623XXSP,2013-05-23 03:39:00,
2013-05-22 22:44:00,61.0,55.2,29.78,WSW,247,0.9,17.7,81,0.02,,,1.75,WUHU21623XXSP,2013-05-23 03:44:00,
2013-05-22 22:49:00,61.0,55.2,29.78,WSW,247,2.9,2.9,81,0.02,,,1.75,WUHU21623XXSP,2013-05-23 03:49:00,
2013-05-22 22:54:00,60.8,55.0,29.78,WSW,247,0.0,2.9,81,0.02,,,1.75,WUHU21623XXSP,2013-05-23 03:54:00,
2013-05-22 22:59:00,60.6,54.8,29.77,WSW,247,0.0,2.2,81,0.00,,,1.75,WUHU21623XXSP,2013-05-23 03:59:00,
2013-05-22 23:01:00,60.6,54.8,29.78,WSW,247,0.0,2.2,81,0.00,,,1.75,WUHU21623XXSP,2013-05-23 04:01:00,
2013-05-22 23:02:00,60.6,54.8,29.78,WSW,247,0.0,2.0,81,0.00,,,1.75,WUHU21623XXSP,2013-05-23 04:02:00,
2013-05-22 23:07:00,60.6,54.8,29.78,WSW,247,0.0,1.3,81,0.00,,,1.75,WUHU21623XXSP,2013-05-23 04:07:00,
2013-05-22 23:12:00,60.6,54.8,29.78,WSW,247,0.0,0.0,81,0.00,,,1.75,WUHU21623XXSP,2013-05-23 04:12:00,
2013-05-22 23:17:00,60.6,54.8,29.78,WSW,247,0.0,1.6,81,0.00,,,1.75,WUHU21623XXSP,2013-05-23 04:17:00,
2013-05-22 23:22:00,60.4,54.6,29.78,WSW,247,0.0,1.6,81,0.00,,,1.75,WUHU21623XXSP,2013-05-23 04:22:00,
2013-05-22 23:27:00,60.4,55.0,29.78,WSW,247,0.0,2.7,82,0.00,,,1.75,WUHU21623XXSP,2013-05-23 04:27:00,
2013-05-22 23:32:00,60.4,55.0,29.78,WSW,247,0.0,4.5,82,0.00,,,1.75,WUHU21623XXSP,2013-05-23 04:32:00,
2013-05-22 23:37:00,60.4,55.0,29.78,WSW,247,0.0,4.5,82,0.00,,,1.75,WUHU21623XXSP,2013-05-23 04:37:00,
2013-05-22 23:42:00,60.1,54.6,29.78,WSW,247,0.0,1.6,82,0.00,,,1.75,WUHU21623XXSP,2013-05-23 04:42:00,
2013-05-22 23:47:00,60.1,54.6,29.78,WSW,247,2.5,3.1,82,0.00,,,1.75,WUHU21623XXSP,2013-05-23 04:47:00,
2013-05-22 23:52:00,60.1,54.6,29.78,WSW,247,0.0,3.1,82,0.00,,,1.75,WUHU21623XXSP,2013-05-23 04:52:00,
2013-05-22 23:57:00,60.1,54.6,29.78,WSW,247,2.5,2.5,82,0.00,,,1.75,WUHU21623XXSP,2013-05-23 04:57:00,